Chillicothe, MO

2:19 PM CDT on July 26, 2017 (GMT -0500)
Chillicothe

Weather History for KCDJ - November, 2012

Change the Weather History Date:

Saturday, November 24, 2012

  Actual Average (KIRK) Record (KIRK)
Temperature  
Mean Temperature 29 °F -  
Max Temperature 39 °F 46 °F 65 °F (1966)
Min Temperature 19 °F 27 °F 4 °F (1950)
Degree Days  
Heating Degree Days 36    
Moisture  
Dew Point 17 °F    
Average Humidity 60    
Maximum Humidity 78    
Minimum Humidity 43    
Precipitation  
Precipitation 0.00 in - - ()
Sea Level Pressure  
Sea Level Pressure 30.23 in    
Wind  
Wind Speed 4 mph (South)    
Max Wind Speed 12 mph    
Max Gust Speed 18 mph    
Averages and records for this station are not official NWS values.
T = Trace of Precipitation, MM = Missing Value Source: NWS Daily Summary

Daily Weather History Graph

Daily Weather History Graph

Search for Another Location

Airport or City:

Trip Planner

Search our weather history database for the weather conditions in past years. The results will help you decide how hot, cold, wet, or windy it might be!

Date:

Astronomy

Nov. 24, 2012 Rise Set
Actual Time 7:09 AM CST 4:52 PM CST
Civil Twilight 6:40 AM CST 5:21 PM CST
Nautical Twilight 6:06 AM CST 5:55 PM CST
Astronomical Twilight 5:34 AM CST 6:27 PM CST
Moon 2:37 PM CST (11/24) 3:27 AM CST (11/24)
Length of Visible Light 10h 41m
Length of Day
9h 42m
Waxing Gibbous, 87% of the Moon is Illuminated
Nov 24
Waxing Gibbous
Nov 28
Full
Dec 6
Last Quarter
Dec 13
New
Dec 19
First Quarter

Hourly Weather History & Observations

Time (CST) Temp. Windchill Dew Point Humidity Pressure Visibility Wind Dir Wind Speed Gust Speed Precip Events Conditions
12:52 AM 21.0 °F 16.2 °F 14.0 °F 74% 30.45 in - NW 3.5 mph - N/A   Unknown
1:52 AM 23.0 °F 18.4 °F 12.9 °F 65% - - NNW 3.5 mph - N/A   Unknown
2:52 AM 21.0 °F - 12.9 °F 71% 30.44 in - Calm Calm - N/A   Unknown
3:52 AM 19.0 °F - 12.9 °F 77% 30.43 in - Calm Calm - N/A   Unknown
4:52 AM 19.9 °F - 12.9 °F 74% 30.42 in - Calm Calm - N/A   Unknown
5:52 AM 19.9 °F - 12.9 °F 74% 30.42 in - Calm Calm - N/A   Unknown
6:52 AM 19.0 °F - 12.9 °F 77% 30.43 in - Calm Calm - N/A   Unknown
7:52 AM 21.0 °F - 15.1 °F 78% 30.42 in - Calm Calm - N/A   Unknown
8:52 AM 23.0 °F 17.0 °F 16.0 °F 74% 30.40 in - SSE 4.6 mph - N/A   Unknown
9:52 AM 26.1 °F 19.4 °F 16.0 °F 66% 30.40 in - SSW 5.8 mph - N/A   Unknown
10:52 AM 30.9 °F 24.3 °F 18.0 °F 59% 30.36 in - Variable 6.9 mph - N/A   Unknown
11:52 AM 33.1 °F 26.1 °F 18.0 °F 54% 30.31 in - South 8.1 mph - N/A   Unknown
12:52 PM 36.0 °F 30.3 °F 17.1 °F 46% 30.25 in - SSE 6.9 mph - N/A   Unknown
1:52 PM 37.0 °F 29.8 °F 18.0 °F 46% 30.20 in - SE 10.4 mph - N/A   Unknown
2:52 PM 37.9 °F 30.5 °F 18.0 °F 45% 30.15 in - SSE 11.5 mph - N/A   Unknown
3:52 PM 39.0 °F 32.8 °F 18.0 °F 43% 30.11 in - SSE 9.2 mph 18.4 mph N/A   Unknown
4:52 PM 37.0 °F 29.3 °F 19.0 °F 48% 30.06 in - SSE 11.5 mph - N/A   Unknown
5:52 PM 36.0 °F 30.3 °F 19.9 °F 52% 30.06 in - SSE 6.9 mph - N/A   Unknown
6:52 PM 37.0 °F 31.6 °F 21.0 °F 52% 30.04 in - SSE 6.9 mph - N/A   Unknown
7:52 PM 37.0 °F 32.4 °F 21.9 °F 54% 30.03 in - SSE 5.8 mph - N/A   Unknown
8:52 PM 37.0 °F - 21.9 °F 54% 30.02 in - Calm Calm - N/A   Unknown
9:52 PM 37.9 °F 32.1 °F 23.0 °F 55% 29.97 in - South 8.1 mph - N/A   Unknown
10:52 PM 39.9 °F 35.1 °F 23.0 °F 51% 29.96 in - SSW 6.9 mph - N/A   Unknown
11:52 PM 39.9 °F 34.5 °F 24.1 °F 53% 29.94 in - South 8.1 mph - N/A   Unknown